Volver al catálogo

STARLINK-36090

ActivoComunicacionesVLEO
NORAD 66855·PAYLOAD·🇺🇸 United States

Lanzado Dec 2, 2025 desde Cape Canaveral Space Force Station

Loading…

Próximos Pases (próximas 24 horas)

TLE

ActualizadoSource: CelesTrak SupGP

Época: Sep 15, 2026, 02:34 UTC

1 66855C 25281H   26258.10743056  .00029312  00000+0  10617-2 0  2588
2 66855  43.0028 353.3644 0001727 265.8274 282.1977 15.27564585    13

Sigue STARLINK-36090 en tiempo real con AllMySat

Download on the App Store